Location: Roc des P�zouls
(43.9667°N, 3.5500°E)
Time: 17:36:23
(UTC+00:00)

Shenzhou-11 Module - Pass Details

Date: 14 November 2019
Orbit: 308 x 321 km, 42.8° (Epoch: 04 December)

Event Time Altitude Azimuth Distance (km) Brightness Sun altitude
Exits shadow 04:40:45 33° 104° (ESE) 546 3.4 -21.3°
Drops below altitude 10° 04:42:27 10° 92° (E) 1,201 5.7 -20.9°
Sets 04:44:26 0° 89° (E) 2,033 7.3 -20.6°
